Home   Weather   Augsburg   Past weeks

Flag for Germany Past Weather in Augsburg, Bavaria, Germany — Yesterday and Last 2 Weeks

Now
37 °F

Light rain. Low clouds.


Feels Like: 31 °F
Forecast: 32 / 52 °F
Wind: 9 mph from Northeast

Location: Augsburg Airport

Current Time: Apr 28, 2017 at 8:54:27 am

Latest Report: Apr 28, 2017 at 8:20 am


Visibility: 4 mi

Pressure: 29.83 "Hg

Humidity: 93%

Dew Point: 36 °F

Location of AugsburgLocation

Past Weather in Augsburg — Graph

°F

Augsburg Temperature Yesterday

Maximum temperature yesterday: 41 °F (at 2:50 pm)
Minimum temperature yesterday: 36 °F (at 7:50 am)
Average temperature yesterday: 38 °F

High & Low Weather Summary for the Past Weeks

 TemperatureHumidityPressure
High64 °F (Apr 24, 6:20 pm)100% (Apr 17, 5:20 pm)30.51 "Hg (Apr 17, 5:20 pm)
Low27 °F (Apr 24, 6:20 am)32% (Apr 24, 4:20 pm)29.74 "Hg (Apr 25, 6:20 am)
Average45 °F70%30.07 "Hg
* Reported Apr 13 8:20 am — Apr 28 7:20 am, Augsburg, Weather by CustomWeather, © 2017

Note: Actual official high and low records may vary slightly from our data, if they occured in-between our weather recording intervals... More about our weather records

Advertising

Augsburg Weather History for the Previous 24 Hours

Scroll right to see more
 ConditionsComfort  
Time TempWeatherWind HumidityBarometerVisibility
7:20 am
Fri, Apr 28
37 °FLight rain. Partly sunny.8 mph93%29.83 "Hg4 mi
6:50 am37 °FLight rain. Low clouds.8 mph93%29.83 "Hg4 mi
6:20 am37 °FLight rain. Low clouds.7 mph93%29.83 "Hg4 mi
9:20 pm
Thu, Apr 27
37 °FLight rain. Mostly cloudy.3 mph93%29.92 "Hg5 mi
8:50 pm37 °FLight rain. Mostly cloudy.3 mph93%29.92 "Hg5 mi
8:20 pm39 °FRain. Mostly cloudy.5 mph93%29.92 "Hg5 mi
7:50 pm39 °FRain. Mostly cloudy.5 mph93%29.92 "Hg5 mi
7:20 pm39 °FRain. Mostly cloudy.5 mph93%29.92 "Hg5 mi
6:50 pm39 °FDrizzle. Mostly cloudy.5 mph93%29.92 "HgN/A
6:20 pm41 °FDrizzle. Mostly cloudy.5 mph87%29.92 "HgN/A
5:50 pm41 °FDrizzle. Mostly cloudy.3 mph87%29.92 "HgN/A
5:20 pm41 °FDrizzle. Mostly cloudy.5 mph87%29.95 "HgN/A
4:50 pm41 °FDrizzle. Mostly cloudy.3 mph87%29.95 "HgN/A
4:20 pm41 °FDrizzle. Mostly cloudy.3 mph87%29.95 "HgN/A
3:50 pm41 °FLight rain. Partly sunny.3 mph87%29.95 "HgN/A
3:20 pm41 °FLight rain. Partly sunny.5 mph87%29.95 "HgN/A
2:50 pm41 °FLight rain. Partly sunny.5 mph87%29.95 "HgN/A
2:20 pm39 °FLight rain. Partly sunny.5 mph87%29.95 "Hg6 mi
1:50 pm39 °FLight rain. Partly sunny.3 mph87%29.95 "Hg5 mi
1:20 pm39 °FRain. Low clouds.2 mph87%29.95 "Hg4 mi
12:50 pm37 °FLight rain. More clouds than sun.2 mph93%29.95 "Hg4 mi
12:20 pm37 °FPartly sunny.2 mph93%29.95 "Hg4 mi
11:50 am37 °FLight rain. Broken clouds.1 mph93%29.95 "Hg4 mi
11:20 am36 °FRain. Mostly cloudy.2 mph93%29.95 "Hg4 mi
10:50 am36 °FLight rain. Partly sunny.2 mph93%29.95 "Hg4 mi
10:20 am36 °FSnow. Partly sunny.2 mph100%29.95 "Hg4 mi
9:50 am36 °FLight rain. More clouds than sun.1 mph93%29.92 "Hg4 mi
9:20 am36 °FRain. More clouds than sun.2 mph93%29.95 "Hg3 mi
8:50 am36 °FLight rain. Mostly cloudy.2 mph100%29.92 "Hg4 mi
8:20 am36 °FLight rain. Low clouds.1 mph93%29.92 "Hg4 mi
Weather by CustomWeather, © 2017

See weather overviewHow to use our weather pages